| time (UTC) | temp F | wind direction | speed knots | gust knots | rain 1hr in | rain 24hr in | rain mn in | humidity % | barometer mb |
| 20260504081906 | 46 | 287 | 0.0 | 0.0 | 0.00 | 0.00 | 0.00 | 60 | 1015.6 |
| 20260504080738 | 46 | 287 | 0.0 | 0.0 | 0.00 | 0.00 | 0.00 | 61 | 1015.5 |
| 20260504080221 | 46 | 287 | 0.0 | 0.0 | 0.00 | 0.00 | 0.00 | 62 | 1015.5 |
| 20260504050542 | 44 | 287 | 0.0 | 0.0 | 0.00 | 0.00 | 0.00 | 60 | 1016.3 |
| 20260504045549 | 45 | 287 | 0.0 | 0.0 | 0.00 | 0.00 | 0.00 | 58 | 1016.3 |
| 20260504045056 | 45 | 287 | 0.0 | 0.0 | 0.00 | 0.00 | 0.00 | 57 | 1016.4 |
| 20260504044556 | 45 | 286 | 0.0 | 0.0 | 0.00 | 0.00 | 0.00 | 57 | 1016.4 |
| 20260504043443 | 45 | 287 | 0.0 | 0.0 | 0.00 | 0.00 | 0.00 | 59 | 1016.3 |
| 20260504042953 | 45 | 287 | 0.0 | 0.0 | 0.00 | 0.00 | 0.00 | 59 | 1016.2 |
| 20260504041834 | 45 | 287 | 0.0 | 0.0 | 0.00 | 0.00 | 0.00 | 58 | 1016.2 |
| 20260504041333 | 45 | 287 | 0.0 | 0.0 | 0.00 | 0.00 | 0.00 | 58 | 1016.1 |
| 20260504035553 | 45 | 287 | 0.0 | 0.0 | 0.00 | 0.00 | 0.00 | 60 | 1016.0 |
| 20260504035040 | 45 | 287 | 0.0 | 0.0 | 0.00 | 0.00 | 0.00 | 59 | 1016.0 |
| 20260504034534 | 45 | 286 | 0.0 | 0.0 | 0.00 | 0.00 | 0.00 | 59 | 1015.9 |
| 20260504034031 | 46 | 286 | 0.0 | 0.0 | 0.00 | 0.00 | 0.00 | 57 | 1015.8 |
| 20260504033527 | 46 | 286 | 0.0 | 0.0 | 0.00 | 0.00 | 0.00 | 57 | 1015.9 |
| 20260504032420 | 47 | 286 | 0.0 | 0.0 | 0.00 | 0.00 | 0.00 | 54 | 1015.8 |
| 20260504031918 | 47 | 286 | 0.0 | 0.0 | 0.00 | 0.00 | 0.00 | 54 | 1015.9 |
| 20260504030149 | 48 | 287 | 0.0 | 0.0 | 0.00 | 0.00 | 0.00 | 52 | 1015.7 |
| 20260504025649 | 48 | 287 | 0.0 | 0.0 | 0.00 | 0.00 | 0.00 | 51 | 1015.7 |
| 20260504025130 | 48 | 286 | 0.0 | 0.9 | 0.00 | 0.00 | 0.00 | 52 | 1015.5 |
| 20260504024612 | 48 | 283 | 0.0 | 0.9 | 0.00 | 0.00 | 0.00 | 54 | 1015.6 |
| 20260504024053 | 48 | 258 | 0.0 | 0.0 | 0.00 | 0.00 | 0.00 | 53 | 1015.8 |
| 20260504023559 | 48 | 257 | 0.0 | 0.0 | 0.00 | 0.00 | 0.00 | 52 | 1015.8 |
| 20260504023059 | 48 | 257 | 0.0 | 0.0 | 0.00 | 0.00 | 0.00 | 53 | 1015.6 |
| 20260504022546 | 48 | 257 | 0.0 | 0.0 | 0.00 | 0.00 | 0.00 | 52 | 1015.6 |
| 20260504022037 | 48 | 257 | 0.0 | 0.0 | 0.00 | 0.00 | 0.00 | 53 | 1015.6 |
| 20260504021520 | 49 | 257 | 0.0 | 0.0 | 0.00 | 0.00 | 0.00 | 52 | 1015.6 |
| 20260504021012 | 49 | 257 | 0.0 | 0.0 | 0.00 | 0.00 | 0.00 | 52 | 1015.5 |
| 20260504020501 | 49 | 257 | 0.0 | 0.0 | 0.00 | 0.00 | 0.00 | 51 | 1015.5 |
| 20260504020000 | 49 | 257 | 0.0 | 0.0 | 0.00 | 0.00 | 0.00 | 51 | 1015.5 |
| 20260504014202 | 49 | 257 | 0.0 | 0.0 | 0.00 | 0.00 | 0.00 | 51 | 1015.4 |
| 20260504013706 | 49 | 257 | 0.0 | 0.0 | 0.00 | 0.00 | 0.00 | 51 | 1015.5 |
| 20260504013149 | 49 | 257 | 0.0 | 0.0 | 0.00 | 0.00 | 0.00 | 51 | 1015.4 |
| 20260504012655 | 50 | 257 | 0.0 | 0.0 | 0.00 | 0.00 | 0.00 | 51 | 1015.3 |
| 20260504012145 | 50 | 256 | 0.0 | 0.0 | 0.00 | 0.00 | 0.00 | 50 | 1015.2 |
| 20260504011625 | 50 | 255 | 0.0 | 0.0 | 0.00 | 0.00 | 0.00 | 49 | 1015.2 |
| 20260504011115 | 50 | 255 | 0.0 | 0.0 | 0.00 | 0.00 | 0.00 | 49 | 1015.0 |
| 20260504010619 | 51 | 255 | 0.0 | 0.0 | 0.00 | 0.00 | 0.00 | 50 | 1015.1 |
| 20260504010127 | 51 | 255 | 0.0 | 0.9 | 0.00 | 0.00 | 0.00 | 49 | 1015.0 |
| 20260504005619 | 52 | 255 | 0.0 | 0.0 | 0.00 | 0.00 | 0.00 | 44 | 1015.1 |
| 20260504005059 | 52 | 255 | 0.0 | 0.0 | 0.00 | 0.00 | 0.00 | 43 | 1015.0 |
| 20260504004554 | 53 | 255 | 0.0 | 0.0 | 0.00 | 0.00 | 0.00 | 43 | 1014.9 |
| 20260504004054 | 53 | 255 | 0.0 | 0.0 | 0.00 | 0.00 | 0.00 | 44 | 1014.9 |
| 20260504003535 | 54 | 255 | 0.0 | 0.0 | 0.00 | 0.00 | 0.00 | 42 | 1014.9 |
| 20260504003022 | 54 | 255 | 0.0 | 0.0 | 0.00 | 0.00 | 0.00 | 41 | 1014.9 |
| 20260504002528 | 55 | 255 | 0.0 | 0.0 | 0.00 | 0.00 | 0.00 | 40 | 1014.9 |
| 20260504002019 | 55 | 255 | 0.0 | 0.0 | 0.00 | 0.00 | 0.00 | 39 | 1014.9 |
| 20260504001510 | 56 | 255 | 0.0 | 0.0 | 0.00 | 0.00 | 0.00 | 37 | 1014.8 |
| 20260504001009 | 56 | 255 | 0.0 | 0.0 | 0.00 | 0.00 | 0.00 | 37 | 1014.8 |
| 20260504000517 | 57 | 255 | 0.0 | 0.0 | 0.00 | 0.00 | 0.00 | 36 | 1014.7 |
| 20260504000006 | 57 | 255 | 0.0 | 0.0 | 0.00 | 0.00 | 0.00 | 35 | 1014.7 |
| 20260503235452 | 57 | 255 | 0.0 | 0.0 | 0.00 | 0.00 | 0.00 | 36 | 1014.7 |
| 20260503234957 | 58 | 255 | 0.0 | 0.9 | 0.00 | 0.00 | 0.00 | 35 | 1014.6 |
| 20260503234505 | 58 | 255 | 0.0 | 0.9 | 0.00 | 0.00 | 0.00 | 35 | 1014.6 |
| 20260503233946 | 58 | 258 | 0.0 | 7.0 | 0.00 | 0.00 | 0.00 | 34 | 1014.5 |
| 20260503233445 | 59 | 262 | 0.0 | 7.0 | 0.00 | 0.00 | 0.00 | 33 | 1014.4 |
| 20260503232256 | 60 | 252 | 0.0 | 5.2 | 0.00 | 0.00 | 0.00 | 32 | 1014.4 |
| 20260503231751 | 60 | 262 | 0.0 | 5.2 | 0.00 | 0.00 | 0.00 | 33 | 1014.4 |
| 20260503231254 | 61 | 269 | 0.0 | 5.2 | 0.00 | 0.00 | 0.00 | 32 | 1014.4 |
| 20260503230800 | 61 | 262 | 0.0 | 2.6 | 0.00 | 0.00 | 0.00 | 31 | 1014.3 |
| 20260503225655 | 61 | 260 | 1.7 | 7.0 | 0.00 | 0.00 | 0.00 | 32 | 1014.1 |
| 20260503225148 | 61 | 248 | 1.7 | 7.0 | 0.00 | 0.00 | 0.00 | 31 | 1014.1 |
| 20260503224631 | 62 | 271 | 0.9 | 6.1 | 0.00 | 0.00 | 0.00 | 31 | 1014.1 |
| 20260503224129 | 62 | 240 | 0.0 | 5.2 | 0.00 | 0.00 | 0.00 | 31 | 1014.1 |
| 20260503223003 | 62 | 270 | 0.9 | 6.1 | 0.00 | 0.00 | 0.00 | 30 | 1014.3 |
| 20260503222459 | 62 | 238 | 0.9 | 8.7 | 0.00 | 0.00 | 0.00 | 30 | 1014.4 |
| 20260503221949 | 62 | 265 | 2.6 | 8.7 | 0.00 | 0.00 | 0.00 | 32 | 1014.4 |
| 20260503221441 | 62 | 263 | 2.6 | 9.6 | 0.00 | 0.00 | 0.00 | 32 | 1014.4 |
| 20260503220949 | 62 | 277 | 2.6 | 9.6 | 0.00 | 0.00 | 0.00 | 32 | 1014.4 |
| 20260503220442 | 62 | 264 | 3.5 | 9.6 | 0.00 | 0.00 | 0.00 | 30 | 1014.4 |
| 20260503215932 | 62 | 242 | 2.6 | 9.6 | 0.00 | 0.00 | 0.00 | 30 | 1014.4 |
| 20260503215436 | 62 | 250 | 1.7 | 7.8 | 0.00 | 0.00 | 0.00 | 33 | 1014.4 |
| 20260503214916 | 62 | 268 | 1.7 | 8.7 | 0.00 | 0.00 | 0.00 | 31 | 1014.4 |
| 20260503214409 | 62 | 251 | 1.7 | 8.7 | 0.00 | 0.00 | 0.00 | 29 | 1014.4 |
| 20260503213853 | 62 | 239 | 2.6 | 9.6 | 0.00 | 0.00 | 0.00 | 33 | 1014.4 |
| 20260503213347 | 62 | 250 | 2.6 | 9.6 | 0.00 | 0.00 | 0.00 | 33 | 1014.5 |
| 20260503212835 | 62 | 240 | 2.6 | 9.6 | 0.00 | 0.00 | 0.00 | 33 | 1014.5 |
| 20260503212333 | 62 | 277 | 2.6 | 9.6 | 0.00 | 0.00 | 0.00 | 32 | 1014.6 |
| 20260503211825 | 62 | 221 | 2.6 | 10.4 | 0.00 | 0.00 | 0.00 | 31 | 1014.6 |
| 20260503211323 | 62 | 258 | 3.5 | 10.4 | 0.00 | 0.00 | 0.00 | 32 | 1014.5 |
| 20260503210156 | 61 | 260 | 1.7 | 8.7 | 0.00 | 0.00 | 0.00 | 33 | 1014.5 |
| 20260503205645 | 62 | 238 | 1.7 | 8.7 | 0.00 | 0.00 | 0.00 | 33 | 1014.5 |
| 20260503205150 | 62 | 244 | 1.7 | 8.7 | 0.00 | 0.00 | 0.00 | 33 | 1014.5 |
| 20260503204654 | 61 | 331 | 2.6 | 11.3 | 0.00 | 0.00 | 0.00 | 33 | 1014.5 |
| 20260503204151 | 61 | 262 | 3.5 | 11.3 | 0.00 | 0.00 | 0.00 | 35 | 1014.5 |
| 20260503203648 | 61 | 292 | 4.3 | 12.2 | 0.00 | 0.00 | 0.00 | 32 | 1014.5 |
| 20260503202504 | 61 | 258 | 3.5 | 12.2 | 0.00 | 0.00 | 0.00 | 33 | 1014.6 |
| 20260503202005 | 61 | 306 | 3.5 | 12.2 | 0.00 | 0.00 | 0.00 | 32 | 1014.6 |
| 20260503201447 | 61 | 228 | 2.6 | 8.7 | 0.00 | 0.00 | 0.00 | 31 | 1014.6 |
| 20260503200938 | 61 | 240 | 1.7 | 8.7 | 0.00 | 0.00 | 0.00 | 33 | 1014.8 |
| 20260503200442 | 61 | 253 | 0.9 | 11.3 | 0.00 | 0.00 | 0.00 | 32 | 1014.8 |
| 20260503195951 | 61 | 241 | 2.6 | 11.3 | 0.00 | 0.00 | 0.00 | 31 | 1014.9 |
| 20260503195450 | 61 | 240 | 4.3 | 12.2 | 0.00 | 0.00 | 0.00 | 33 | 1015.0 |
| 20260503194946 | 61 | 253 | 3.5 | 12.2 | 0.00 | 0.00 | 0.00 | 31 | 1015.0 |
| 20260503194439 | 61 | 254 | 2.6 | 12.2 | 0.00 | 0.00 | 0.00 | 35 | 1015.1 |
| 20260503193940 | 60 | 260 | 0.9 | 12.2 | 0.00 | 0.00 | 0.00 | 35 | 1015.2 |
| 20260503193434 | 60 | 11 | 0.9 | 8.7 | 0.00 | 0.00 | 0.00 | 34 | 1015.4 |
| 20260503192917 | 60 | 0 | 1.7 | 8.7 | 0.00 | 0.00 | 0.00 | 31 | 1015.4 |
| 20260503192414 | 60 | 309 | 2.6 | 8.7 | 0.00 | 0.00 | 0.00 | 34 | 1015.5 |
| 20260503191908 | 60 | 298 | 2.6 | 13.0 | 0.00 | 0.00 | 0.00 | 31 | 1015.4 |
| 20260503191406 | 60 | 237 | 2.6 | 13.0 | 0.00 | 0.00 | 0.00 | 37 | 1015.6 |
| 20260503190236 | 59 | 227 | 4.3 | 13.0 | 0.00 | 0.00 | 0.00 | 35 | 1015.6 |
| 20260503185734 | 59 | 248 | 3.5 | 13.0 | 0.00 | 0.00 | 0.00 | 33 | 1015.6 |
| 20260503185225 | 59 | 217 | 3.5 | 13.0 | 0.00 | 0.00 | 0.00 | 36 | 1015.7 |
| 20260503184719 | 59 | 248 | 3.5 | 13.0 | 0.00 | 0.00 | 0.00 | 33 | 1015.7 |
| 20260503184223 | 58 | 237 | 2.6 | 13.0 | 0.00 | 0.00 | 0.00 | 35 | 1015.8 |
| 20260503183711 | 58 | 257 | 1.7 | 8.7 | 0.00 | 0.00 | 0.00 | 36 | 1016.0 |
| 20260503183208 | 58 | 257 | 2.6 | 8.7 | 0.00 | 0.00 | 0.00 | 37 | 1016.1 |
| 20260503182700 | 58 | 234 | 3.5 | 8.7 | 0.00 | 0.00 | 0.00 | 35 | 1016.1 |
| 20260503182158 | 58 | 289 | 3.5 | 13.0 | 0.00 | 0.00 | 0.00 | 37 | 1016.0 |
| 20260503181702 | 58 | 264 | 3.5 | 13.0 | 0.00 | 0.00 | 0.00 | 35 | 1016.1 |
| 20260503180538 | 58 | 257 | 2.6 | 13.0 | 0.00 | 0.00 | 0.00 | 40 | 1016.2 |
| 20260503175420 | 57 | 294 | 3.5 | 11.3 | 0.00 | 0.00 | 0.00 | 38 | 1016.3 |
| 20260503174909 | 56 | 296 | 1.7 | 9.6 | 0.00 | 0.00 | 0.00 | 43 | 1016.2 |
| 20260503174414 | 56 | 270 | 1.7 | 8.7 | 0.00 | 0.00 | 0.00 | 39 | 1016.4 |
| 20260503173909 | 56 | 244 | 1.7 | 10.4 | 0.00 | 0.00 | 0.00 | 41 | 1016.4 |
| 20260503173406 | 56 | 265 | 1.7 | 10.4 | 0.00 | 0.00 | 0.00 | 38 | 1016.4 |
| 20260503172852 | 56 | 272 | 2.6 | 10.4 | 0.00 | 0.00 | 0.00 | 39 | 1016.5 |
| 20260503171728 | 56 | 246 | 1.7 | 11.3 | 0.00 | 0.00 | 0.00 | 40 | 1016.6 |
| 20260503171221 | 55 | 252 | 2.6 | 11.3 | 0.00 | 0.00 | 0.00 | 45 | 1016.5 |
| 20260503150714 | 49 | 246 | 0.9 | 10.4 | 0.00 | 0.00 | 0.00 | 52 | 1017.6 |
| 20260503150202 | 48 | 270 | 2.6 | 10.4 | 0.00 | 0.00 | 0.00 | 52 | 1017.7 |
| 20260503131236 | 45 | 286 | 1.7 | 7.8 | 0.00 | 0.00 | 0.00 | 59 | 1017.9 |
| 20260503130741 | 45 | 271 | 0.9 | 7.8 | 0.00 | 0.00 | 0.00 | 59 | 1017.9 |